St. Cloud, MN

6:45 PM CST on November 13, 2019 (GMT -0600)
Saint Cloud Regional

Weather History for KSTC - October, 2019

Change the Weather History Date:

Tuesday, October 22, 2019

  Actual Average Record
Temperature  
Mean Temperature 40 °F 43 °F  
Max Temperature 43 °F 54 °F 81 °F (1992)
Min Temperature 38 °F 33 °F 13 °F (1976)
Degree Days  
Heating Degree Days 24 22  
Month to date heating degree days 398 385  
Since 1 July heating degree days 573 671  
Cooling Degree Days 0 0  
Month to date cooling degree days 0 0  
Year to date cooling degree days 452 463  
Moisture  
Dew Point 35 °F    
Average Humidity 79    
Maximum Humidity 89    
Minimum Humidity 70    
Precipitation  
Precipitation 0.11 in 0.07 in 0.86 in (1951)
Month to date precipitation 3.84 1.93  
Year to date precipitation 38.73 24.97  
Snow  
Snow 0.00 in 0.00 in 1.50 in (1925)
Month to date snowfall 0.5 0.3  
Since 1 July snowfall 0.5 0.3  
Since 1 September snowfall 0.5 0.3  
Snow Depth 0.00 in    
Sea Level Pressure  
Sea Level Pressure 29.51 in    
Wind  
Wind Speed 18 mph ()    
Max Wind Speed 32 mph    
Max Gust Speed 45 mph    
Visibility 9.7 miles    
Events Rain    
T = Trace of Precipitation, MM = Missing Value Source: Averaged Metar Reports

Daily Weather History Graph

Daily Weather History Graph

Search for Another Location

Airport or City:

Astronomy

Oct. 22, 2019 Rise Set
Actual Time 7:41 AM CDT 6:18 PM CDT
Civil Twilight 7:11 AM CDT 6:49 PM CDT
Nautical Twilight 6:36 AM CDT 7:23 PM CDT
Astronomical Twilight 6:02 AM CDT 7:57 PM CDT
Moon 12:27 AM CDT (10/22) 3:51 PM CDT (10/22)
Length of Visible Light 11h 37m
Length of Day
10h 37m
Last Quarter, 37% of the Moon is Illuminated
Oct 22
Last Quarter
Oct 27
New
Nov 4
First Quarter
Nov 12
Full
Nov 19
Last Quarter

Hourly Weather History & Observations

Time (CDT) Temp. Windchill Dew Point Humidity Pressure Visibility Wind Dir Wind Speed Gust Speed Precip Events Conditions
12:16 AM 41.0 °F 32.2 °F 37.9 °F 89% 29.26 in 10.0 mi NNW 18.4 mph 29.9 mph N/A   Overcast
12:51 AM 41.0 °F 31.9 °F 37.4 °F 87% 29.27 in 7.0 mi NNW 19.6 mph 36.8 mph 0.00 in Rain Light Rain
12:53 AM 41.0 °F 30.9 °F 37.9 °F 89% 29.31 in 8.0 mi NNW 24.2 mph 38.0 mph 0.00 in Rain Light Rain
1:12 AM 41.0 °F 32.2 °F 37.9 °F 89% 29.28 in 8.0 mi NNW 18.4 mph 38.0 mph 0.03 in Rain Light Rain
1:19 AM 41.0 °F 31.6 °F 37.9 °F 89% 29.28 in 8.0 mi NNW 20.7 mph 39.1 mph 0.03 in Rain Light Rain
1:53 AM 42.1 °F 34.5 °F 37.9 °F 85% 29.33 in 10.0 mi NW 15.0 mph 27.6 mph 0.05 in Rain Light Rain
2:53 AM 43.0 °F 34.2 °F 39.9 °F 89% 29.34 in 10.0 mi NW 20.7 mph 34.5 mph 0.01 in Rain Light Rain
3:16 AM 43.0 °F 34.8 °F 39.9 °F 89% 29.30 in 7.0 mi NW 18.4 mph 28.8 mph 0.00 in Rain Light Rain
3:53 AM 42.1 °F 32.3 °F 39.0 °F 89% 29.35 in 10.0 mi NW 24.2 mph 34.5 mph 0.01 in Rain Light Rain
4:53 AM 41.0 °F 31.4 °F 37.9 °F 89% 29.37 in 10.0 mi NW 21.9 mph 34.5 mph 0.03 in Rain Light Rain
5:53 AM 39.9 °F 29.5 °F 37.0 °F 89% 29.40 in 10.0 mi WNW 24.2 mph 36.8 mph 0.00 in   Overcast
6:53 AM 39.9 °F 29.7 °F 36.0 °F 86% 29.42 in 10.0 mi WNW 23.0 mph 42.6 mph 0.00 in Rain Light Rain
7:53 AM 39.9 °F 28.6 °F 35.1 °F 83% 29.44 in 10.0 mi WNW 28.8 mph 36.8 mph 0.00 in Rain Light Rain
8:53 AM 39.0 °F 28.5 °F 35.1 °F 86% 29.47 in 10.0 mi WNW 23.0 mph 33.4 mph 0.00 in   Overcast
9:53 AM 39.9 °F 30.8 °F 36.0 °F 86% 29.49 in 10.0 mi WNW 18.4 mph 31.1 mph 0.01 in   Overcast
10:53 AM 39.9 °F 30.8 °F 35.1 °F 83% 29.51 in 10.0 mi WNW 18.4 mph 38.0 mph N/A   Overcast
11:53 AM 39.9 °F 30.2 °F 35.1 °F 83% 29.53 in 10.0 mi WNW 20.7 mph 34.5 mph 0.00 in Rain Light Rain
12:53 PM 39.9 °F 28.8 °F 34.0 °F 79% 29.54 in 10.0 mi WNW 27.6 mph 40.3 mph 0.00 in   Overcast
1:53 PM 41.0 °F 31.6 °F 33.1 °F 73% 29.56 in 10.0 mi WNW 20.7 mph 38.0 mph N/A   Overcast
2:53 PM 39.9 °F 29.0 °F 32.0 °F 73% 29.58 in 10.0 mi WNW 26.5 mph 38.0 mph N/A   Overcast
3:53 PM 41.0 °F 31.1 °F 32.0 °F 70% 29.61 in 10.0 mi WNW 23.0 mph 38.0 mph N/A   Overcast
4:53 PM 41.0 °F 31.4 °F 33.1 °F 73% 29.64 in 10.0 mi WNW 21.9 mph 34.5 mph N/A   Overcast
5:53 PM 41.0 °F 31.6 °F 33.1 °F 73% 29.66 in 10.0 mi WNW 20.7 mph 32.2 mph N/A   Overcast
6:30 PM 41.0 °F 32.2 °F 32.0 °F 70% 29.62 in 10.0 mi WNW 18.4 mph 32.2 mph N/A   Overcast
6:38 PM 41.0 °F 31.9 °F 32.0 °F 70% 29.62 in 10.0 mi WNW 19.6 mph 28.8 mph N/A   Overcast
6:53 PM 41.0 °F 31.6 °F 32.0 °F 70% 29.68 in 10.0 mi WNW 20.7 mph 32.2 mph N/A   Overcast
7:07 PM 41.0 °F 31.9 °F 32.0 °F 70% 29.63 in 10.0 mi WNW 19.6 mph 29.9 mph N/A   Overcast
7:25 PM 41.0 °F 31.6 °F 32.0 °F 70% 29.64 in 10.0 mi WNW 20.7 mph 34.5 mph N/A   Overcast
7:32 PM 41.0 °F 32.2 °F 32.0 °F 70% 29.64 in 10.0 mi WNW 18.4 mph 34.5 mph N/A   Overcast
7:53 PM 41.0 °F 33.5 °F 32.0 °F 70% 29.69 in 10.0 mi West 13.8 mph - N/A   Overcast
8:40 PM 41.0 °F 33.1 °F 32.0 °F 70% 29.66 in 10.0 mi WNW 15.0 mph - N/A   Overcast
8:53 PM 41.0 °F 33.1 °F 32.0 °F 70% 29.71 in 10.0 mi WNW 15.0 mph 26.5 mph N/A   Overcast
9:53 PM 41.0 °F 32.8 °F 32.0 °F 70% 29.72 in 10.0 mi WNW 16.1 mph 26.5 mph N/A   Overcast
10:53 PM 39.9 °F 31.8 °F 30.9 °F 70% 29.73 in 10.0 mi WNW 15.0 mph 23.0 mph N/A   Overcast
11:53 PM 39.9 °F 31.8 °F 30.9 °F 70% 29.73 in 10.0 mi WNW 15.0 mph 24.2 mph N/A   Overcast